Theta_e
300 294 292 295 297 298 296 294 292 295 296 294 294 294 296 296 295 295 295 294 294 294 294 296 299 300 301 302 303 305 304 305 305 303 301 298 295 294 293 294 294 295 296 298
295 291 298 300 299 297 295 293 292 296 296 293 293 293 297 296 295 296 295 294 293 292 292 295 297 300 300 301 303 304 306 306 305 302 299 296 292 291 291 291 291 292 292 292
294 297 300 298 295 294 294 292 292 292 293 293 290 289 293 297 296 297 297 296 294 292 292 293 295 298 299 300 301 302 302 300 298 296 295 293 292 290 289 288 288 289 290 290
295 300 296 295 294 295 290 296 295 293 289 284 291 283 292 295 293 293 294 292 291 292 293 293 293 295 296 296 298 299 298 297 296 295 293 292 289 286 286 287 288 288 289 288
293 293 293 293 294 296 292 295 292 291 288 287 287 285 289 294 290 292 293 292 291 292 292 291 291 292 291 292 291 292 293 293 293 292 291 289 287 287 288 287 287 287 287 287
295 296 295 295 295 296 296 292 290 289 288 281 288 288 288 292 292 293 293 292 292 291 290 289 289 290 289 289 289 289 289 289 290 290 289 288 287 287 287 287 285 285 285 285
292 293 295 296 291 294 294 289 283 280 279 280 287 286 291 292 291 293 292 291 291 291 289 287 287 287 287 287 287 288 287 288 289 289 288 288 288 287 286 286 285 284 283 282
287 286 293 295 294 291 289 290 283 276 279 281 282 281 288 290 291 293 294 293 292 290 289 287 286 286 286 286 286 286 286 286 286 286 287 287 287 286 285 285 284 283 282 282
290 290 295 295 296 297 289 286 294 285 277 277 284 287 291 290 289 290 291 291 290 289 288 286 286 286 286 285 284 285 285 285 286 286 286 286 285 285 284 283 283 282 282 283
295 288 292 290 293 293 291 294 284 285 277 276 282 284 286 285 287 289 290 290 291 289 288 287 287 286 285 285 285 285 285 285 285 286 285 285 284 284 283 283 282 281 281 281
295 292 285 289 287 288 287 286 288 289 285 280 277 284 292 293 291 288 291 291 291 289 289 288 288 286 286 285 284 284 284 284 284 285 285 284 284 284 283 282 281 281 281 280
296 293 283 285 291 292 292 290 290 286 282 285 284 286 290 291 293 291 291 291 292 290 289 288 287 286 285 284 284 284 284 284 284 285 284 284 284 283 282 281 281 280 279 279
296 289 283 285 286 289 287 290 292 292 287 285 281 285 289 290 291 291 291 291 291 290 288 288 287 285 285 284 284 284 284 284 285 285 284 283 282 282 281 280 280 279 278 277
299 290 287 286 288 288 283 286 289 289 285 284 286 289 286 287 288 290 290 291 291 290 289 288 286 286 285 285 284 284 284 284 284 284 283 282 281 281 281 280 279 279 278 277
296 287 290 290 292 290 286 285 288 286 288 285 288 289 293 290 289 291 293 291 290 290 289 288 287 286 285 284 284 284 284 284 284 284 282 282 281 282 281 280 278 278 277 276
294 287 289 287 289 290 288 289 287 288 289 290 290 290 295 297 293 291 292 292 290 290 290 289 289 288 285 285 284 284 284 283 284 283 282 282 282 281 281 279 277 277 276 275
289 286 285 283 286 287 284 288 290 291 290 290 286 291 294 291 290 290 291 292 291 291 291 290 289 289 287 286 285 284 283 283 283 282 282 282 282 280 279 278 276 275 274 274
285 285 286 284 285 278 287 291 293 292 293 294 292 292 288 291 293 292 294 292 291 292 292 291 291 290 288 287 285 284 282 282 282 282 282 281 280 279 278 276 275 274 273 272
289 285 284 282 282 283 286 281 285 286 288 293 293 294 286 287 289 289 291 293 293 292 292 292 291 290 288 287 286 284 282 282 282 282 282 280 279 278 277 275 274 273 272 271
283 286 285 281 279 277 277 279 284 288 282 284 291 289 284 288 287 288 288 289 290 291 290 289 288 287 287 285 285 284 282 281 281 281 281 280 279 278 276 274 272 271 270 271
278 279 281 283 282 283 280 278 282 279 280 277 283 283 285 288 288 286 287 287 288 287 286 286 286 286 285 284 283 282 280 280 281 279 279 279 279 277 275 273 271 270 270 271
279 279 278 281 280 278 279 279 281 281 280 281 282 281 283 281 283 284 285 284 283 283 283 282 282 282 281 282 282 281 280 281 279 279 278 276 274 275 273 272 269 269 267 266
280 284 282 283 282 279 280 279 281 283 284 281 283 284 284 280 279 281 281 280 280 281 281 280 281 280 279 280 281 280 280 279 277 276 275 272 271 272 271 269 268 266 265 265
279 281 281 281 280 281 281 286 284 281 281 281 281 282 281 278 279 279 278 279 279 279 279 278 279 278 277 277 278 275 276 275 275 272 270 270 270 268 268 269 268 267 265 265
279 281 278 276 278 280 281 282 285 282 281 280 280 281 280 279 278 279 278 278 279 278 277 276 277 277 276 275 273 272 273 273 273 271 269 268 268 268 266 267 267 267 266 268
278 279 279 277 280 281 282 284 286 282 281 280 280 279 279 280 279 279 278 279 278 277 276 275 275 274 272 273 272 272 272 272 271 269 268 268 267 266 266 265 263 273 273 274
Wind_Speed
6 5 10 13 12 11 9 10 8 5 3 6 10 11 9 13 9 10 9 9 9 8 7 6 5 7 6 5 6 8 8 6 7 6 7 8 8 7 8 8 9 9 8 9
2 10 13 8 9 7 10 11 9 8 8 3 7 12 10 14 15 16 11 10 10 9 8 7 7 7 5 6 5 6 7 7 4 5 5 5 5 7 7 6 8 8 9 9
10 4 12 12 4 6 9 9 7 9 5 5 6 9 14 12 9 9 8 9 10 12 11 9 9 9 7 6 5 5 6 7 7 8 9 9 8 6 6 6 6 7 8 9
11 14 5 7 11 9 10 8 11 7 4 5 7 8 6 7 8 9 9 9 10 11 10 9 8 8 8 6 6 6 7 7 6 7 7 7 7 9 5 6 5 7 7 8
6 6 11 10 8 9 4 5 1 2 6 5 7 9 6 8 9 16 15 11 10 10 12 10 10 9 8 7 7 6 7 6 7 8 8 9 10 8 7 6 8 7 6 7
7 1 3 4 5 6 8 5 3 1 1 8 11 13 7 13 14 11 13 13 12 13 11 9 9 9 7 7 7 7 8 6 7 8 8 9 10 9 8 6 7 5 4 5
8 10 4 4 6 3 5 7 2 3 2 10 4 11 17 3 5 9 18 18 15 14 13 12 11 10 9 8 8 7 7 7 7 8 9 9 9 10 11 8 6 6 4 4
12 6 19 11 13 8 10 10 7 7 6 4 4 9 8 3 6 2 17 18 18 17 14 13 11 9 10 9 8 8 7 8 7 8 8 8 8 5 5 7 7 5 5 4
6 9 5 12 6 8 7 10 10 5 2 2 7 8 5 6 2 4 14 19 20 19 16 15 13 10 10 9 9 9 8 7 7 7 7 7 7 7 8 8 8 6 6 5
4 2 3 4 6 4 5 5 4 2 4 8 6 11 12 7 11 9 17 22 20 18 17 15 14 13 10 9 8 9 8 9 8 8 7 6 7 7 7 7 8 8 6 6
5 3 0 4 8 12 5 4 5 6 5 4 4 11 6 17 18 19 18 20 21 22 20 18 15 12 12 10 9 8 8 10 9 8 7 8 7 7 7 7 7 7 6 6
9 3 5 11 6 5 5 7 11 6 7 8 4 19 4 5 13 16 17 17 17 18 17 16 14 13 13 12 10 10 8 10 8 8 7 7 8 7 7 7 7 7 7 6
11 4 2 4 3 2 8 12 15 16 4 22 5 17 3 6 7 11 14 17 18 18 18 16 14 15 15 14 13 12 11 11 10 10 9 8 8 8 8 8 7 7 7 6
11 5 10 19 4 7 8 11 17 16 15 4 26 22 4 5 6 9 13 15 17 19 19 18 18 17 14 14 14 13 11 11 11 10 9 9 9 8 8 8 8 7 7 7
10 11 13 22 18 6 6 9 22 25 31 16 29 25 20 12 13 16 18 16 18 21 21 20 19 17 16 16 14 14 13 12 12 11 9 10 8 8 8 8 8 7 6 6
1 6 9 23 17 16 17 12 18 24 27 29 29 34 6 12 16 10 12 18 21 19 21 21 18 17 17 18 17 14 14 12 12 12 10 9 9 8 8 8 7 7 6 6
9 8 7 17 8 12 14 37 22 24 23 23 29 39 12 6 10 11 14 15 16 18 20 19 20 18 16 17 16 17 14 11 12 11 9 9 10 8 9 9 8 7 7 6
9 12 6 9 6 12 11 5 24 25 30 27 28 23 5 10 12 10 17 17 14 14 13 12 12 13 12 12 11 10 9 12 12 11 10 9 10 10 10 9 9 6 6 7
9 6 5 5 8 7 12 5 9 13 26 23 25 22 7 7 5 3 1 7 11 8 7 7 8 7 10 12 11 11 10 12 13 13 12 11 11 12 11 11 11 7 6 6
1 6 10 4 5 8 2 4 5 8 15 6 18 14 10 9 12 6 8 7 8 9 8 9 9 9 11 9 12 12 12 12 14 13 13 12 12 13 13 12 10 5 5 6
4 3 13 13 9 6 3 4 3 7 8 3 1 5 10 9 5 9 12 7 8 9 11 10 11 13 12 10 12 11 11 14 12 8 10 11 11 12 10 9 5 7 6 5
10 10 6 6 6 9 2 3 8 4 4 2 3 3 6 6 5 8 9 12 10 12 9 8 9 8 8 9 11 10 12 9 8 9 10 10 9 7 8 10 6 6 6 6
4 5 5 6 4 2 1 2 2 1 2 2 1 3 6 5 2 6 8 9 8 10 8 5 10 9 5 7 8 10 7 9 9 9 9 8 8 7 8 10 9 5 6 5
3 3 2 3 2 4 4 4 3 2 4 3 2 4 6 6 7 6 6 6 7 5 6 4 7 7 7 6 5 4 8 8 9 8 8 7 8 7 6 5 6 7 7 6
2 7 5 0 3 2 8 5 6 1 3 4 5 3 4 7 4 6 6 6 6 5 3 4 7 6 6 6 5 5 7 9 8 7 7 7 6 8 7 5 6 6 3 6
5 5 6 5 7 3 5 11 8 4 3 3 4 3 3 5 7 5 5 5 5 6 4 3 3 3 3 5 5 5 6 7 8 6 6 6 6 5 5 5 2 11 11 12
Wind_Direction
202 205 207 212 214 247 283 297 290 278 139 188 228 247 210 193 206 210 198 180 179 170 130 136 123 112 111 105 113 116 125 141 124 117 105 91 87 80 69 61 57 54 56 58
116 232 235 228 242 234 238 259 261 283 135 172 272 266 265 178 206 203 188 186 169 133 153 155 151 135 128 130 135 151 165 177 116 91 96 100 107 88 85 75 62 54 57 58
202 192 212 229 220 232 245 237 240 241 152 223 286 268 255 247 187 189 197 174 159 159 163 161 155 146 139 129 124 108 92 87 96 106 107 109 108 93 84 62 69 49 57 58
232 240 216 208 216 189 241 217 232 258 299 243 150 281 234 255 183 183 188 184 163 163 154 162 152 145 126 115 108 98 96 115 125 133 135 128 112 113 95 100 86 69 56 63
210 190 180 198 186 179 212 44 53 202 254 306 263 278 241 227 206 210 198 184 169 158 156 156 154 135 130 130 121 113 110 103 90 93 102 107 111 111 111 105 97 82 67 65
230 28 208 205 45 192 122 83 75 58 200 256 216 222 230 217 217 212 188 179 171 158 153 152 129 129 129 130 127 121 121 116 108 107 105 109 114 120 120 112 103 92 77 65
200 230 175 150 99 16 171 132 231 288 201 238 165 220 245 325 153 189 183 180 171 161 161 151 152 153 152 148 137 134 134 129 125 118 117 122 123 123 127 130 123 115 100 83
197 227 182 177 206 166 186 184 164 223 214 277 332 240 249 9 39 215 174 170 165 167 164 163 167 160 160 153 150 139 141 126 114 112 109 108 112 117 115 114 114 113 113 105
205 221 108 157 182 176 188 214 231 349 97 6 218 260 257 163 176 152 161 168 173 171 166 169 172 166 157 155 149 144 139 124 114 109 102 106 110 112 117 115 111 111 107 110
239 240 355 68 75 338 168 166 112 180 212 235 259 251 240 224 213 199 180 182 176 171 171 173 173 166 159 151 146 144 144 141 137 131 130 135 130 121 121 116 110 110 111 109
171 153 92 115 196 178 141 207 219 168 178 224 294 256 215 205 197 193 193 186 180 177 177 176 175 166 157 151 154 152 149 146 146 144 145 139 136 132 116 110 117 123 118 117
185 128 184 209 207 229 224 186 189 181 226 234 247 264 6 9 182 178 187 187 183 182 177 176 171 165 162 162 158 159 154 154 157 151 145 145 136 130 120 123 125 129 133 130
164 197 209 294 124 23 208 213 210 226 78 231 176 260 360 21 140 181 180 181 180 177 178 176 174 177 174 170 166 165 166 166 165 156 156 149 144 139 143 142 141 142 142 137
116 172 207 227 190 133 187 203 208 201 221 194 228 251 219 212 192 179 189 187 181 182 184 182 180 180 178 173 172 171 171 167 165 161 162 153 154 157 151 146 151 151 152 147
162 219 220 246 257 238 192 197 209 210 224 208 248 239 242 205 201 203 195 180 185 188 187 188 186 182 176 175 175 174 174 167 166 167 168 167 160 158 149 149 150 148 144 149
140 240 204 252 239 247 262 234 221 220 229 235 248 255 186 233 200 185 185 185 192 191 189 190 188 184 182 179 178 175 174 169 167 172 175 162 160 157 151 144 145 148 152 152
189 181 183 250 167 233 254 234 229 231 230 225 237 247 217 207 182 187 189 186 193 193 191 190 192 187 183 182 174 179 170 159 169 168 169 168 163 158 152 148 149 163 172 167
182 193 194 254 136 220 242 171 214 223 237 231 245 251 199 237 215 189 171 169 188 193 188 191 187 182 176 164 163 154 151 162 168 171 169 164 161 158 150 154 168 167 170 179
188 186 224 217 223 294 290 190 155 179 245 231 237 249 187 139 91 265 357 156 161 150 143 169 171 148 149 154 155 154 155 157 168 178 175 172 164 160 161 174 178 180 167 183
33 262 212 163 232 227 311 304 318 91 268 230 212 212 155 148 198 185 125 95 93 101 139 138 140 136 146 154 148 152 163 166 182 181 181 169 166 170 178 180 174 157 167 184
151 191 224 228 243 265 217 238 278 141 251 284 261 142 154 197 243 134 125 120 144 140 145 143 143 151 155 146 144 158 159 187 187 161 157 165 173 178 175 162 153 158 163 170
168 174 196 217 236 243 193 30 164 237 336 299 52 105 127 138 101 134 130 137 145 142 137 141 133 138 144 144 147 160 184 181 158 153 157 162 158 156 159 162 150 160 163 177
217 199 185 195 208 278 314 224 297 311 247 272 167 154 130 114 112 135 138 141 146 147 148 133 139 131 138 155 162 168 188 149 144 148 155 147 142 152 157 162 164 157 167 181
183 155 190 153 177 249 255 263 244 328 7 352 23 141 148 136 139 109 108 120 126 131 138 117 126 139 156 169 164 145 142 139 144 145 146 146 156 154 157 163 169 175 181 193
179 147 143 255 254 316 284 275 268 41 57 54 52 73 116 123 94 119 126 134 142 131 118 141 153 156 182 162 172 150 147 145 152 147 151 157 162 169 169 183 180 188 196 186
188 166 180 208 177 180 212 215 237 183 214 190 129 103 72 132 144 132 151 154 148 147 141 131 154 157 204 170 162 152 146 148 146 151 159 166 162 168 161 170 214 220 208 222